Theta_e
315 315 314 314 315 314 315 315 314 315 315 314 312 311 309 308 307 311 312 314 311 314 314 315 324 324 321 323 333 353 360 358 356 357 356 353 350 349 346 350 348 347 349 347 345
313 312 313 314 315 313 313 313 313 312 312 312 311 310 308 308 312 315 316 316 313 311 316 315 327 322 322 325 329 350 356 357 353 352 354 355 353 347 350 350 351 350 347 345 344
310 311 311 311 312 312 312 312 312 310 308 307 308 308 307 309 318 316 323 317 313 316 315 314 318 324 327 329 333 353 359 353 352 349 353 354 351 345 348 354 350 351 348 345 344
309 309 310 310 311 311 311 311 311 311 311 308 306 307 307 314 321 324 319 320 314 317 316 313 319 326 328 331 331 358 358 353 356 349 351 357 352 347 346 351 347 348 346 345 345
309 309 309 309 309 310 311 312 312 311 312 308 307 307 315 317 316 319 319 320 317 319 313 311 323 326 329 330 352 357 357 353 355 354 353 354 355 351 351 348 347 347 347 346 345
310 309 309 308 309 309 310 311 312 311 314 308 308 312 317 314 320 324 319 321 317 317 311 310 319 324 327 338 342 356 355 352 352 354 354 356 355 354 346 348 349 348 348 347 345
309 310 309 308 309 309 311 311 311 312 311 307 308 315 316 310 323 320 319 319 320 318 311 311 312 318 324 348 350 350 356 354 352 352 355 353 357 356 350 348 349 348 348 347 346
309 309 310 309 309 310 311 312 311 314 308 307 309 317 311 317 322 322 320 323 319 317 315 313 312 317 324 347 353 356 354 357 353 354 353 351 354 354 349 349 349 348 347 346 346
309 309 309 309 309 311 312 312 312 317 312 311 319 317 321 322 321 321 322 322 315 315 312 312 315 315 324 348 348 347 358 358 357 353 353 354 354 354 351 347 348 347 345 345 346
310 310 309 309 311 312 313 312 317 318 320 320 319 318 318 322 322 317 319 321 315 313 314 314 312 318 317 323 337 347 354 357 358 354 352 352 355 353 351 351 343 345 346 346 346
310 309 310 312 313 313 314 313 314 316 323 322 321 322 322 322 320 319 319 318 316 317 318 319 319 321 320 321 326 339 350 356 357 354 353 353 354 351 351 349 343 339 345 346 346
310 311 312 313 314 314 315 311 315 319 318 320 323 323 324 324 320 320 322 321 318 318 319 318 321 320 321 322 325 325 340 355 353 351 352 352 355 353 351 350 345 337 345 346 345
310 312 314 315 315 318 316 319 319 319 317 319 322 324 324 320 320 320 318 318 319 318 318 319 321 321 323 325 337 333 351 354 355 347 350 353 353 355 351 349 346 344 343 345 346
311 313 315 316 317 317 315 318 318 318 319 322 323 323 319 318 320 319 316 316 317 318 317 317 317 319 319 322 326 332 350 346 346 349 358 351 354 352 352 350 346 343 341 343 345
311 313 315 316 315 314 318 318 319 317 324 324 321 320 316 319 320 320 317 316 317 317 317 318 317 317 318 318 336 347 347 347 350 355 355 356 355 350 351 352 348 343 342 340 345
312 314 316 316 316 318 319 318 319 323 325 322 321 321 320 319 320 319 318 318 317 319 317 318 318 315 323 339 344 347 347 351 350 352 356 351 355 356 354 350 347 341 342 341 344
313 316 316 316 316 319 317 317 322 319 318 317 318 319 320 320 321 320 319 318 317 321 319 318 320 327 343 347 345 335 336 349 350 355 356 351 356 352 347 344 344 343 341 341 341
317 317 318 317 317 317 319 319 322 324 315 315 315 320 321 320 320 320 319 318 318 317 316 319 320 316 324 344 344 337 336 345 353 354 356 352 357 348 343 342 342 343 340 342 339
320 317 317 319 323 318 316 323 323 316 316 315 318 319 323 324 323 324 320 324 321 318 323 319 321 320 321 331 336 341 341 337 349 349 353 353 349 347 345 346 347 342 341 344 341
319 319 318 319 322 320 318 323 323 317 316 318 319 319 322 326 326 324 327 326 325 322 317 322 322 322 322 324 336 331 330 339 338 352 352 355 347 345 352 356 350 347 341 342 343
321 315 319 321 324 316 320 320 322 315 317 318 318 319 319 326 327 327 328 326 323 322 321 321 321 323 322 323 322 321 323 323 329 337 349 356 350 343 344 353 350 345 342 341 343
315 315 322 323 320 311 317 320 321 316 315 316 318 319 319 326 328 327 326 326 325 322 324 321 318 322 325 322 320 321 323 321 324 327 336 343 335 348 349 349 347 345 340 340 344
312 314 320 317 319 313 312 318 319 316 315 316 317 317 321 325 327 328 328 326 323 327 326 323 319 322 322 324 323 324 330 328 315 315 322 323 324 344 344 343 343 342 343 343 342
314 316 315 312 310 315 318 317 318 316 315 316 316 317 319 326 324 328 325 326 325 328 331 322 317 320 323 326 325 335 342 342 320 318 318 321 323 349 345 345 343 343 343 344 344
313 316 317 324 324 323 316 315 318 316 315 315 315 318 321 325 328 325 322 322 323 325 323 321 326 322 321 328 336 338 340 344 350 350 319 322 335 349 344 341 340 339 341 346 346
313 323 321 323 321 319 314 318 317 316 315 315 314 314 321 323 323 323 321 322 324 322 322 321 327 328 334 334 335 335 335 341 346 345 348 346 348 345 340 336 339 342 343 346 349
314 318 321 323 323 325 325 327 318 317 318 314 314 313 320 316 319 318 316 316 320 322 321 323 324 327 330 331 334 335 334 335 346 341 342 345 340 338 341 343 341 340 342 344 347
Wind_Speed
11 11 11 10 9 9 10 9 10 10 10 11 11 11 11 12 13 7 7 7 6 7 2 2 3 3 2 1 5 1 3 3 3 5 2 10 5 4 5 15 6 1 11 17 26
13 12 11 11 10 10 9 9 9 9 10 10 10 11 11 13 11 10 13 9 9 10 7 2 3 6 1 2 3 3 3 3 4 6 5 11 5 9 8 9 14 18 15 27 29
15 14 14 13 12 11 11 10 10 10 10 10 10 10 9 9 3 6 5 17 13 7 5 3 3 3 2 2 3 4 3 9 10 15 3 6 5 6 18 10 19 22 20 22 25
16 15 15 15 14 13 12 12 12 11 10 9 8 7 6 3 3 1 4 6 17 10 4 3 3 4 1 2 3 3 2 15 10 14 6 8 4 11 13 7 19 21 25 23 17
15 16 16 15 15 15 14 14 13 11 10 8 6 5 2 2 7 4 4 12 16 11 6 4 4 3 1 2 2 2 5 6 4 7 9 11 11 10 11 17 18 21 21 18 16
14 16 17 16 16 16 15 13 13 10 9 7 3 3 2 2 3 2 1 15 15 14 5 5 5 5 3 2 1 3 9 6 5 2 5 12 10 4 8 17 18 21 19 17 17
14 16 17 18 18 17 17 14 11 8 7 5 3 3 1 7 6 3 4 6 14 15 5 6 3 3 2 1 1 5 5 2 8 6 4 4 12 2 8 21 20 20 16 13 15
14 16 18 19 19 18 18 16 11 6 4 2 3 1 6 3 7 13 10 10 7 14 12 3 11 3 1 2 3 3 2 2 3 5 3 1 2 4 13 19 19 18 15 13 15
15 17 18 19 20 20 19 18 8 2 2 3 1 2 8 6 6 10 11 5 5 8 5 2 3 3 1 3 4 5 2 3 3 3 3 2 5 8 8 11 17 17 17 15 13
16 17 18 19 21 21 19 14 3 3 3 1 2 3 4 4 4 4 10 12 3 5 3 3 3 2 3 4 4 4 2 1 1 4 2 1 5 6 14 6 16 19 18 15 15
17 19 19 19 19 20 18 3 4 2 4 6 4 4 6 7 4 3 8 9 2 5 3 2 4 5 6 4 4 3 3 3 4 8 3 2 2 4 8 4 8 11 15 15 18
18 20 21 19 19 16 7 2 3 0 8 9 6 6 12 6 3 1 7 4 4 3 2 5 2 6 4 4 4 2 0 5 6 5 3 1 4 2 3 4 1 10 17 17 15
20 22 21 19 16 4 9 5 5 13 1 7 5 4 4 8 3 3 4 1 4 2 2 4 5 4 4 3 2 4 4 8 6 3 4 3 1 4 4 2 3 2 18 17 19
20 23 23 18 3 7 7 9 22 3 5 6 4 5 3 3 2 7 6 4 4 6 2 4 6 6 4 5 7 6 4 8 11 10 3 2 3 6 9 6 5 6 7 16 15
21 22 20 14 9 3 6 21 6 4 4 1 2 1 3 4 3 2 5 5 1 2 3 7 4 4 5 7 7 2 8 7 5 5 3 2 1 5 13 14 11 8 8 11 17
22 23 18 7 8 7 14 20 3 5 3 5 2 2 3 2 2 3 2 2 2 2 2 8 4 5 1 1 9 18 17 12 6 3 2 5 6 3 6 22 15 5 8 9 17
23 19 13 7 4 8 16 4 5 4 5 7 4 3 3 2 2 5 3 2 2 3 4 5 3 3 9 13 3 6 5 3 5 3 3 3 4 7 6 10 20 13 11 11 17
20 12 9 13 11 9 4 5 6 3 5 4 3 2 2 3 3 3 3 3 2 3 1 1 5 7 3 9 10 9 5 5 6 5 4 3 3 5 4 4 18 19 17 14 17
15 6 7 3 1 5 5 5 5 4 2 5 5 9 9 6 4 3 4 1 1 3 2 1 5 5 5 6 9 6 4 4 6 3 2 2 5 9 12 15 11 21 14 19 19
10 5 5 3 9 4 5 3 4 5 1 4 5 2 3 7 5 4 2 2 3 2 5 2 4 3 5 4 4 6 7 3 2 5 4 2 0 8 7 8 7 17 22 20 20
3 3 3 10 5 5 2 5 5 5 2 4 3 3 1 2 3 2 2 1 3 6 2 2 2 7 3 3 6 3 1 5 4 4 4 4 5 11 4 8 7 9 14 17 20
4 2 5 16 3 1 2 5 4 5 2 3 5 2 1 2 2 2 2 2 5 2 3 4 4 3 6 5 5 1 4 3 4 4 2 3 5 6 11 8 7 4 6 8 13
2 2 9 6 2 2 6 6 7 3 2 2 3 4 3 3 3 1 3 4 4 3 1 2 2 3 9 6 6 6 5 3 3 3 4 5 4 5 11 11 8 6 5 4 3
2 3 4 3 1 4 3 6 2 1 3 4 4 5 4 5 4 1 3 2 4 2 2 5 2 4 5 4 2 4 5 4 3 3 2 5 4 6 6 9 6 5 4 3 4
2 3 3 3 4 4 4 4 3 3 2 3 3 4 4 2 2 2 2 5 3 5 4 4 1 2 4 5 8 3 4 6 4 1 5 4 2 4 3 6 4 3 3 2 5
1 2 4 2 3 6 4 4 3 3 5 2 6 4 3 5 6 3 3 2 3 4 3 4 1 2 1 5 10 5 10 4 5 4 1 3 4 3 3 4 6 6 6 4 5
4 3 3 3 3 1 2 4 4 5 1 7 8 5 4 4 6 3 4 3 1 5 2 3 2 3 3 3 4 5 5 5 0 4 2 2 2 1 6 9 5 6 6 6 1
Wind_Direction
0 357 355 349 346 342 339 333 329 327 324 320 321 319 321 319 314 294 247 224 194 155 129 171 143 120 147 244 195 95 78 156 182 139 195 282 144 131 85 123 125 94 137 137 142
8 5 3 357 353 352 346 341 333 329 323 321 321 323 326 328 321 258 251 212 184 187 241 212 116 126 46 250 204 154 114 148 256 181 200 214 217 127 125 129 110 108 117 136 144
15 14 11 6 3 3 356 350 346 345 335 326 326 326 332 331 301 250 331 214 193 163 152 108 101 86 140 239 239 175 186 147 228 244 163 233 130 135 145 136 148 145 145 147 152
15 13 9 6 2 359 355 353 346 340 337 334 334 339 339 341 137 319 343 185 186 176 186 123 125 107 198 219 244 133 88 175 196 216 186 235 134 167 165 166 151 148 153 153 158
9 8 7 3 1 357 352 348 344 337 330 339 343 356 26 341 255 317 328 162 170 188 195 147 133 137 253 235 98 124 108 72 152 203 204 198 180 186 202 147 151 145 152 158 159
0 2 2 358 354 353 346 340 339 336 333 341 1 38 11 310 315 294 108 159 175 185 199 154 174 233 299 6 181 124 98 113 75 100 171 172 129 237 160 145 151 153 165 165 165
354 356 355 349 347 347 340 332 330 329 338 355 83 57 21 233 87 131 169 170 197 201 153 210 211 12 336 48 89 123 104 78 22 6 76 350 155 94 152 155 159 163 170 165 166
351 349 348 343 342 341 335 327 324 314 340 27 99 66 250 220 258 258 237 249 252 216 210 68 208 290 243 160 69 79 85 90 339 351 26 279 104 245 169 161 165 166 169 157 174
348 345 342 338 337 335 336 326 318 255 87 95 75 66 284 290 248 246 214 198 184 191 193 215 167 212 101 93 41 17 74 59 106 329 74 321 161 211 290 186 171 173 173 173 163
346 342 338 337 335 332 337 336 0 132 112 38 270 333 288 315 250 207 202 201 153 154 140 116 64 77 30 92 197 169 157 107 61 211 151 162 141 167 231 233 176 180 174 169 170
345 340 338 336 333 331 340 355 2 8 163 230 228 246 274 302 289 189 162 158 98 52 119 126 98 190 217 209 165 140 114 87 6 12 358 81 137 144 230 251 165 151 161 170 179
345 342 341 335 329 329 349 48 210 57 310 229 222 265 266 262 289 325 149 122 127 191 103 26 232 219 188 206 237 103 7 126 63 311 347 61 216 107 210 251 352 151 169 173 170
344 343 341 336 325 343 328 324 335 326 101 301 194 203 225 147 206 267 117 107 116 108 129 154 236 77 137 132 61 0 263 164 131 133 227 210 257 220 233 286 240 180 179 170 173
343 339 339 337 341 327 293 347 327 187 54 285 311 275 140 130 265 214 162 122 40 200 214 244 258 232 178 191 158 224 174 134 137 115 263 24 272 207 217 216 209 198 172 177 186
337 333 334 330 302 267 321 335 354 103 30 87 260 179 73 142 161 304 143 54 226 218 102 260 270 205 188 218 143 202 160 148 114 71 189 176 24 267 178 231 228 203 201 179 179
331 326 324 315 290 272 329 334 115 40 8 338 149 212 112 319 315 113 143 69 176 231 195 242 247 169 157 185 133 132 92 67 57 47 273 205 184 266 192 208 222 172 187 177 180
328 316 302 265 255 297 327 24 45 81 321 333 292 288 183 197 199 144 167 147 165 30 350 314 265 90 123 78 27 80 80 101 49 14 258 328 169 262 224 220 210 191 187 185 182
328 307 287 270 269 290 336 51 72 249 262 304 310 55 170 114 22 59 78 18 13 70 5 314 342 167 180 159 181 186 163 152 158 182 230 85 263 265 181 215 204 211 192 173 176
330 309 280 283 257 181 70 56 201 224 270 337 356 46 360 357 106 81 22 41 184 157 160 310 274 297 208 160 148 212 198 168 99 2 123 282 285 277 240 234 211 216 196 177 177
329 311 273 224 140 88 72 225 229 224 183 71 53 73 18 342 55 42 3 306 343 318 146 208 305 305 300 92 313 177 158 98 33 151 152 246 89 256 229 211 227 197 199 186 172
351 31 347 152 127 50 134 229 251 269 260 80 31 31 57 44 56 48 306 15 11 340 33 105 118 293 348 35 182 312 223 56 121 140 156 168 240 231 191 201 193 207 201 184 174
11 27 102 154 56 43 173 205 242 251 44 64 107 74 105 94 60 2 318 233 353 327 9 341 142 291 249 295 322 210 119 131 140 217 201 154 274 15 84 84 88 66 168 189 185
41 253 191 245 168 288 292 283 218 200 45 102 39 73 41 106 95 240 312 286 5 63 45 294 348 15 346 8 6 51 353 299 104 58 190 138 264 57 83 62 59 69 89 90 124
50 0 319 57 101 150 268 267 184 121 115 89 118 83 79 39 16 106 324 340 4 44 40 99 106 154 174 212 235 10 342 334 106 112 203 209 270 60 74 88 45 40 39 105 143
63 259 192 307 324 319 212 286 162 131 50 61 48 99 126 118 32 5 331 321 350 350 38 77 149 296 235 236 113 67 8 19 73 68 184 299 171 55 54 109 69 41 42 45 178
68 1 356 290 307 341 9 330 184 180 138 220 125 152 122 144 177 198 200 191 269 348 53 4 237 302 148 21 104 84 18 8 64 2 168 28 82 95 66 79 61 19 21 348 180
343 338 105 268 312 60 269 298 234 137 41 174 150 110 134 185 188 213 175 89 255 168 139 90 75 39 273 318 273 53 339 340 173 23 269 202 298 61 73 69 51 50 22 345 306